Weather History for GMMX - November, 2013

Change the Weather History Date:

Wednesday, November 6, 2013

  Actual Average Record
Temperature  
Mean Temperature 70 °F -  
Max Temperature 86 °F 69 °F 89 °F (2007)
Min Temperature 55 °F 48 °F 46 °F (2008)
Cooling Degree Days 6    
Growing Degree Days 20 (Base 50)    
Moisture  
Dew Point 49 °F    
Average Humidity 47    
Maximum Humidity 72    
Minimum Humidity 20    
Precipitation  
Precipitation 0.00 in 0.05 in - ()
Sea Level Pressure  
Sea Level Pressure 30.14 in    
Wind  
Wind Speed 3 mph ()    
Max Wind Speed 6 mph    
Max Gust Speed -    
Visibility 5.7 miles    
Events      
Averages and records for this station are not official NWS values.
T = Trace of Precipitation, MM = Missing Value Source: Averaged Metar Reports

Daily Weather History Graph

Daily Weather History Graph

Search for Another Location

Airport or City:

Trip Planner

Search our weather history database for the weather conditions in past years. The results will help you decide how hot, cold, wet, or windy it might be!

Date:

Astronomy

Nov. 06, 2013 Rise Set
Actual Time 6:52 AM WET 5:38 PM WET
Civil Twilight 6:27 AM WET 6:04 PM WET
Nautical Twilight 5:58 AM WET 6:33 PM WET
Astronomical Twilight 5:29 AM WET 7:01 PM WET
Moon 9:49 AM WET (11/6) 8:33 PM WET (11/6)
Length of Visible Light 11h 37m
Length of Day
10h 46m
Waxing Crescent, 12% of the Moon is Illuminated
Nov 6
Waxing Crescent
Nov 10
First Quarter
Nov 17
Full
Nov 25
Last Quarter
Dec 3
New

Hourly Weather History & Observations

Time (WET) Temp. Dew Point Humidity Pressure Visibility Wind Dir Wind Speed Gust Speed Precip Events Conditions
12:00 AM 65 °F 46 °F 39% 30.15 in 6 mi East 4.6 mph - -  
12:00 AM 64.4 °F 46.4 °F 52% 30.18 in - East 4.6 mph - N/A   Clear
12:30 AM 64.4 °F 46.4 °F 52% 30.18 in - Variable 2.3 mph - N/A   Clear
1:00 AM 64.4 °F 46.4 °F 52% 30.18 in - ENE 3.5 mph - N/A   Clear
1:30 AM 62.6 °F 44.6 °F 52% 30.18 in - East 4.6 mph - N/A   Clear
2:00 AM 60.8 °F 46.4 °F 59% 30.15 in - ENE 5.8 mph - N/A   Clear
2:30 AM 62.6 °F 46.4 °F 55% 30.15 in - NE 2.3 mph - N/A   Clear
3:00 AM 62 °F 46 °F 44% 30.14 in 6 mi Calm Calm - -  
3:00 AM 62.6 °F 46.4 °F 55% 30.15 in - Calm Calm - N/A   Clear
3:30 AM 60.8 °F 46.4 °F 59% 30.15 in - ENE 5.8 mph - N/A   Clear
4:00 AM 60.8 °F 46.4 °F 59% 30.15 in - Variable 1.2 mph - N/A   Clear
4:30 AM 59.0 °F 46.4 °F 63% 30.15 in - NNE 3.5 mph - N/A   Clear
5:00 AM 59.0 °F 46.4 °F 63% 30.15 in 6.2 mi ESE 2.3 mph - N/A   Unknown
5:30 AM 57.2 °F 46.4 °F 67% 30.15 in - Calm Calm - N/A   Clear
6:00 AM 56 °F 47 °F 62% 30.14 in 6 mi SW 2.3 mph - -  
6:00 AM 57.2 °F 46.4 °F 67% 30.15 in - SW 2.3 mph - N/A   Clear
6:30 AM 55.4 °F 46.4 °F 72% 30.15 in - Calm Calm - N/A   Clear
7:00 AM 57.2 °F 46.4 °F 67% 30.15 in - Calm Calm - N/A   Clear
7:30 AM 57.2 °F 46.4 °F 67% 30.15 in - Calm Calm - N/A   Clear
8:00 AM 62.6 °F 48.2 °F 59% 30.18 in - Calm Calm - N/A   Clear
8:30 AM 64.4 °F 48.2 °F 56% 30.18 in 5.0 mi Calm Calm - N/A   Unknown
9:00 AM 67 °F 49 °F 42% 30.15 in 6 mi East 2.3 mph - -  
9:00 AM 68.0 °F 48.2 °F 49% 30.18 in 5.6 mi Variable 2.3 mph - N/A   Unknown
9:30 AM 69.8 °F 48.2 °F 46% 30.18 in 5.0 mi Variable 2.3 mph - N/A   Unknown
10:00 AM 71.6 °F 50.0 °F 46% 30.18 in - Variable 1.2 mph - N/A   Clear
10:30 AM 75.2 °F 50.0 °F 41% 30.18 in - Variable 2.3 mph - N/A   Clear
11:00 AM 75.2 °F 50.0 °F 41% 30.18 in 5.6 mi NW 3.5 mph - N/A   Unknown
11:30 AM 77.0 °F 50.0 °F 39% 30.18 in - North 3.5 mph - N/A   Clear
12:00 PM 78 °F 50 °F 26% 30.09 in 6 mi North 3.5 mph - -  
12:00 PM 78.8 °F 50.0 °F 36% 30.15 in - NNW 3.5 mph - N/A   Clear
12:30 PM 80.6 °F 50.0 °F 34% 30.15 in - NNW 3.5 mph - N/A   Clear
1:00 PM 80.6 °F 50.0 °F 34% 30.12 in - Variable 4.6 mph - N/A   Clear
1:30 PM 82.4 °F 48.2 °F 30% 30.12 in - Variable 4.6 mph - N/A   Clear
2:00 PM 82.4 °F 48.2 °F 30% 30.12 in - NNE 4.6 mph - N/A   Clear
2:30 PM 84.2 °F 50.0 °F 30% 30.12 in - Variable 2.3 mph - N/A   Clear
3:00 PM 85 °F 50 °F 20% 30.01 in 6 mi NNW 3.5 mph - -  
3:00 PM 84.2 °F 50.0 °F 30% 30.09 in - WNW 4.6 mph - N/A   Clear
3:30 PM 86.0 °F 50.0 °F 29% 30.09 in - Variable 2.3 mph - N/A   Clear
4:00 PM 86.0 °F 50.0 °F 29% 30.09 in - WNW 3.5 mph - N/A   Clear
4:30 PM 86.0 °F 50.0 °F 29% 30.09 in - Variable 3.5 mph - N/A   Clear
5:00 PM 84.2 °F 50.0 °F 30% 30.09 in - West 5.8 mph - N/A   Clear
5:30 PM 82.4 °F 50.0 °F 32% 30.09 in - West 4.6 mph - N/A   Clear
6:00 PM 79 °F 53 °F 29% 30.03 in 6 mi West 3.5 mph - -  
6:00 PM 78.8 °F 51.8 °F 39% 30.09 in - West 4.6 mph - N/A   Clear
6:30 PM 77.0 °F 51.8 °F 41% 30.12 in - West 4.6 mph - N/A   Clear
7:00 PM 75.2 °F 50.0 °F 41% 30.12 in 5.0 mi Variable 2.3 mph - N/A   Unknown
8:00 PM 73.4 °F 48.2 °F 41% 30.12 in - ESE 2.3 mph - N/A   Clear
8:30 PM 69.8 °F 50.0 °F 49% 30.15 in - SW 5.8 mph - N/A   Clear
9:00 PM 71 °F 51 °F 39% 30.09 in 6 mi SW 4.6 mph - -  
9:00 PM 69.8 °F 51.8 °F 53% 30.15 in - SW 3.5 mph - N/A   Clear
9:30 PM 69.8 °F 51.8 °F 53% 30.15 in - Variable 1.2 mph - N/A   Clear
10:00 PM 69.8 °F 53.6 °F 56% 30.15 in - SW 5.8 mph - N/A   Clear
10:30 PM 68.0 °F 53.6 °F 60% 30.15 in - SW 4.6 mph - N/A   Clear
11:00 PM 66.2 °F 53.6 °F 64% 30.15 in - WSW 3.5 mph - N/A   Clear
11:30 PM 64.4 °F 53.6 °F 68% 30.15 in - West 5.8 mph - N/A   Clear